Regional Weather Roundup
Issued by NWS

Home | Current Version | Previous Version | Text Only | Print | Product List | Glossary Off
Versions: 1 2 3 4 5 6 7 8 9 10 11 12 13 14 15 16 17 18 19 20 21 22 23 24 25 26 27 28 29 30 31 32 33 34 35 36 37 38 39 40 41 42 43 44 45 46 47 48 49 50

000
ASUS43 KIND 040909
RWRIN

WEATHER ROUNDUP FOR INDIANA
NATIONAL WEATHER SERVICE INDIANAPOLIS IN
400 AM EST WED MAR 04 2015

NOTE: "FAIR" INDICATES FEW OR NO CLOUDS BELOW 12,000 FEET WITH NO
SIGNIFICANT WEATHER AND/OR OBSTRUCTIONS TO VISIBILITY.

* - STATION DOES NOT REPORT WEATHER SUCH AS PRECIPITATION OR FOG.

+ - STATION NOT QUALITY CONTROLLED BY THE NATIONAL WEATHER SERVICE.
    USE DATA WITH CAUTION...ESPECIALLY DEWPOINT AND RELATIVE
    HUMIDITY OBSERVATIONS.

INZ001>003-010>013-019-020-041000-
NORTHWEST INDIANA

CITY           SKY/WX    TMP DP  RH WIND       PRES   REMARKS
GARY /AIRPORT/ MOCLDY    32  21  63 W9        29.90R WCI  24
KNOX *+          N/A     30  18  59 W5        29.88S WCI  25
LA PORTE +     MOCLDY    31  26  81 W3        29.88S
MICHIGAN CITY+ CLOUDY    32  23  69 W6        29.89R WCI  26
MONTICELLO +   CLOUDY    31  28  91 W6        29.90R WCI  25
RENSSELAER +   CLOUDY    32  30  93 W5        29.90F WCI  27
VALPARAISO     MOCLDY    28  22  78 W7        29.89S WCI  21

$$

LMZ046-743>745-041000-
SOUTHERN LAKE MICHIGAN

STATION/POSITION TIME  TEMP WIND        PRES
                       AIR  DIR/SP/G
                 (UTC) (F)  (DEG/KT/KT) (MB)
MICHIGAN CITY    0900   31  250/  9/ 11   N/A

$$

INZ004-005-014>016-021>024-041000-
NORTH CENTRAL INDIANA

CITY           SKY/WX    TMP DP  RH WIND       PRES   REMARKS
GOSHEN         CLOUDY    30  23  75 W6        29.86F WCI  24
LOGANSPORT +   CLOUDY    32  30  93 W5        29.90R WCI  27
PERU/GRISSOM   CLOUDY    32  29  89 W7        29.87S WCI  26
ROCHESTER +    CLOUDY    34  30  86 W8        29.89R WCI  27
SOUTH BEND     CLOUDY    31  25  78 W7        29.87F WCI  24
WARSAW +       CLOUDY    32  27  80 NW5       29.87S WCI  27

$$

INZ006>009-017-018-025>027-041000-
NORTHEAST INDIANA

CITY           SKY/WX    TMP DP  RH WIND       PRES   REMARKS
ANGOLA *+      CLOUDY    30  23  74 NW7       29.83F WCI  23
AUBURN +       CLOUDY    32  27  80 W9        29.86R WCI  24
FORT WAYNE     CLOUDY    33  29  85 NW8       29.86S WCI  26
HUNTINGTON +   CLOUDY    32  27  80 W3        29.88R

$$

INZ028-029-035-036-043>045-051>053-041000-
WEST CENTRAL INDIANA

CITY           SKY/WX    TMP DP  RH WIND       PRES   REMARKS
CRAWFORDSVL +  CLOUDY    31  24  76 NW5       29.88F WCI  26
GREENCASTLE +  CLOUDY    32  28  86 NW6       29.90S WCI  26
LAFAYETTE      CLOUDY    31  26  82 NW7       29.89F WCI  24
TERRE HAUTE    CLOUDY    33  30  88 NW5       29.92R WCI  29

$$

INZ030>032-037>040-046>048-054>057-064-065-041000-
CENTRAL INDIANA

CITY           SKY/WX    TMP DP  RH WIND       PRES   REMARKS
CP ATTERBURY + DRIZZLE   34  34 100 NW3       29.91R
FRANKFORT +    CLOUDY    32  29  88 W6        29.89F WCI  26
GREENWOOD *+   CLOUDY    34  30  86 NW5       29.90R WCI  30
INDIANAPOLIS   CLOUDY    33  28  81 NW9       29.88R WCI  25
-EAGLE CREEK   CLOUDY    32  29  88 NW10      29.89R WCI  24
KOKOMO *+      CLOUDY    32  28  86 W9        29.89R WCI  24
MARION +       CLOUDY    32  30  92 W8        29.88S WCI  25
MT COMFORT *+  CLOUDY    34 N/A N/A NW7       29.88S WCI  28
SHELBYVILLE    CLOUDY    36  31  82 W6        29.89R
ZIONSVILLE +   CLOUDY    33  29  86 NW7       29.89S WCI  27

$$

INZ033-034-041-042-049-050-058-059-041000-
EAST CENTRAL INDIANA

CITY           SKY/WX    TMP DP  RH WIND       PRES   REMARKS
MUNCIE         CLOUDY    33  30  88 W7        29.86F WCI  27

$$

INZ060-061-067>069-081>083-085>088-041000-
SOUTHWEST INDIANA

CITY           SKY/WX    TMP DP  RH WIND       PRES   REMARKS
EVANSVILLE     RAIN      41  38  89 N5        29.93R FOG
HUNTINGBURG *+ CLOUDY    37  36  93 N7        29.90S
WASHINGTON +   LGT RAIN  34  31  90 N7        29.91R WCI  28

$$

INZ062-063-066-070>080-084-089>092-041000-
SOUTH CENTRAL AND SOUTHEAST INDIANA

CITY           SKY/WX    TMP DP  RH WIND       PRES   REMARKS
BEDFORD +      RAIN      36  36 100 NW3       29.90F
BLOOMINGTON    MIX PCPN  35  33  92 NW5       29.91R FOG     WCI  31
NORTH VERNON + LGT RAIN  36  36 100 N3        29.89F
SEYMOUR +      LGT RAIN  37  37 100 N6        29.89F

$$




USA.gov is the U.S. government's official web portal to all federal, state and local government web resources and services.